14/04/2024 18:45:00,1.007
14/04/2024 19:00:00,1.004
14/04/2024 19:15:00,1.006
14/04/2024 19:30:00,1.004
14/04/2024 19:45:00,1.007
14/04/2024 20:00:00,1.005
14/04/2024 20:15:00,1.004
14/04/2024 20:30:00,1.005
14/04/2024 20:45:00,1.003
14/04/2024 21:00:00,1.003
14/04/2024 21:15:00,1.005
14/04/2024 21:30:00,1.004
14/04/2024 21:45:00,1.004
14/04/2024 22:00:00,1.004
14/04/2024 22:15:00,1.003
14/04/2024 22:30:00,1.002
14/04/2024 22:45:00,1.004
14/04/2024 23:00:00,1.002
14/04/2024 23:15:00,1.003
14/04/2024 23:30:00,1.003
14/04/2024 23:45:00,1.003
15/04/2024 00:00:00,1.003
15/04/2024 00:15:00,1
15/04/2024 00:30:00,1.002
15/04/2024 00:45:00,1.003
15/04/2024 01:00:00,1.002
15/04/2024 01:15:00,1.001
15/04/2024 01:30:00,1.001
15/04/2024 01:45:00,1.001
15/04/2024 02:00:00,1.002
15/04/2024 02:15:00,1.002
15/04/2024 02:30:00,1.002
15/04/2024 02:45:00,1.002
15/04/2024 03:00:00,1.003
15/04/2024 03:15:00,1.003
15/04/2024 03:30:00,1.003
15/04/2024 03:45:00,1.003
15/04/2024 04:00:00,1.002
15/04/2024 04:15:00,1.002
15/04/2024 04:30:00,1.004
15/04/2024 04:45:00,1.004
15/04/2024 05:00:00,1.003
15/04/2024 05:15:00,1.002
15/04/2024 05:30:00,1.003
15/04/2024 05:45:00,1.002
15/04/2024 06:00:00,1.002
15/04/2024 06:15:00,1.004
15/04/2024 06:30:00,1.001
15/04/2024 06:45:00,1.002
15/04/2024 07:00:00,1.002
15/04/2024 07:15:00,1.002
15/04/2024 07:30:00,1.002
15/04/2024 07:45:00,1.001
15/04/2024 08:00:00,1.003
15/04/2024 08:15:00,1.003
15/04/2024 08:30:00,1.004
15/04/2024 08:45:00,1.002
15/04/2024 09:00:00,1.001
15/04/2024 09:15:00,1.001
15/04/2024 09:30:00,1.002
15/04/2024 09:45:00,1.002
15/04/2024 10:00:00,1.001
15/04/2024 10:15:00,1.001
15/04/2024 10:30:00,1.003
15/04/2024 10:45:00,1.001
15/04/2024 11:00:00,1.001
15/04/2024 11:15:00,1.001
15/04/2024 11:30:00,0.999
15/04/2024 11:45:00,1.001
15/04/2024 12:00:00,0.999
15/04/2024 12:15:00,0.999
15/04/2024 12:30:00,1
15/04/2024 12:45:00,1
15/04/2024 13:00:00,0.998
15/04/2024 13:15:00,1
15/04/2024 13:30:00,0.998
15/04/2024 13:45:00,1.001
15/04/2024 14:00:00,1.001
15/04/2024 14:15:00,0.999
15/04/2024 14:30:00,0.999
15/04/2024 14:45:00,1.001
15/04/2024 15:00:00,1.001
15/04/2024 15:15:00,1
15/04/2024 15:30:00,0.999
15/04/2024 15:45:00,0.999
15/04/2024 16:00:00,0.998
15/04/2024 16:15:00,0.999
15/04/2024 16:30:00,0.999
15/04/2024 16:45:00,0.999
15/04/2024 17:00:00,0.999
15/04/2024 17:15:00,1
15/04/2024 17:30:00,1.001
15/04/2024 17:45:00,0.998
15/04/2024 18:00:00,1
15/04/2024 18:15:00,1.001
15/04/2024 18:30:00,0.999
15/04/2024 18:45:00,1
15/04/2024 19:00:00,0.999
15/04/2024 19:15:00,1.002
15/04/2024 19:30:00,1
15/04/2024 19:45:00,1.003
15/04/2024 20:00:00,1.003
15/04/2024 20:15:00,1.003
15/04/2024 20:30:00,1.006
15/04/2024 20:45:00,1.005
15/04/2024 21:00:00,1.004
15/04/2024 21:15:00,1.006
15/04/2024 21:30:00,1.007
15/04/2024 21:45:00,1.006
15/04/2024 22:00:00,1.008
15/04/2024 22:15:00,1.011
15/04/2024 22:30:00,1.01
15/04/2024 22:45:00,1.011
15/04/2024 23:00:00,1.012
15/04/2024 23:15:00,1.014
15/04/2024 23:30:00,1.016
15/04/2024 23:45:00,1.016
16/04/2024 00:00:00,1.018
16/04/2024 00:15:00,1.018
16/04/2024 00:30:00,1.019
16/04/2024 00:45:00,1.022
16/04/2024 01:00:00,1.022
16/04/2024 01:15:00,1.025
16/04/2024 01:30:00,1.025
16/04/2024 01:45:00,1.029
16/04/2024 02:00:00,1.031
16/04/2024 02:15:00,1.034
16/04/2024 02:30:00,1.036
16/04/2024 02:45:00,1.036
16/04/2024 03:00:00,1.041
16/04/2024 03:15:00,1.039
16/04/2024 03:30:00,1.043
16/04/2024 03:45:00,1.046
16/04/2024 04:00:00,1.051
16/04/2024 04:15:00,1.054
16/04/2024 04:30:00,1.059
16/04/2024 04:45:00,1.064
16/04/2024 05:00:00,1.069
16/04/2024 05:15:00,1.078
16/04/2024 05:30:00,1.083
16/04/2024 05:45:00,1.091
16/04/2024 06:00:00,1.1
16/04/2024 06:15:00,1.107
16/04/2024 06:30:00,1.113
16/04/2024 06:45:00,1.122
16/04/2024 07:00:00,1.128
16/04/2024 07:15:00,1.136
16/04/2024 07:30:00,1.141
16/04/2024 07:45:00,1.149
16/04/2024 08:00:00,1.155
16/04/2024 08:15:00,1.162
16/04/2024 08:30:00,1.168
16/04/2024 08:45:00,1.173
16/04/2024 09:00:00,1.176
16/04/2024 09:15:00,1.182
16/04/2024 09:30:00,1.185
16/04/2024 09:45:00,1.19
16/04/2024 10:00:00,1.19
16/04/2024 10:15:00,1.192
16/04/2024 10:30:00,1.193
16/04/2024 10:45:00,1.191
16/04/2024 11:00:00,1.192
16/04/2024 11:15:00,1.191
16/04/2024 11:30:00,1.193
16/04/2024 11:45:00,1.191
16/04/2024 12:00:00,1.188
16/04/2024 12:15:00,1.189
16/04/2024 12:30:00,1.188
16/04/2024 12:45:00,1.186
16/04/2024 13:00:00,1.183
16/04/2024 13:15:00,1.178
16/04/2024 13:30:00,1.179
16/04/2024 13:45:00,1.175
16/04/2024 14:00:00,1.174
16/04/2024 14:15:00,1.171
16/04/2024 14:30:00,1.172
16/04/2024 14:45:00,1.168
16/04/2024 15:00:00,1.165
16/04/2024 15:15:00,1.163
16/04/2024 15:30:00,1.163
16/04/2024 15:45:00,1.156
16/04/2024 16:00:00,1.157
16/04/2024 16:15:00,1.154
16/04/2024 16:30:00,1.149
16/04/2024 16:45:00,1.15
16/04/2024 17:00:00,1.144
16/04/2024 17:15:00,1.146
16/04/2024 17:30:00,1.144
16/04/2024 17:45:00,1.139
16/04/2024 18:00:00,1.137
16/04/2024 18:15:00,1.137
16/04/2024 18:30:00,1.132
16/04/2024 18:45:00,1.133
16/04/2024 19:00:00,1.13
16/04/2024 19:15:00,1.127
16/04/2024 19:30:00,1.124
16/04/2024 19:45:00,1.119
16/04/2024 20:00:00,1.121
16/04/2024 20:15:00,1.117
16/04/2024 20:30:00,1.116
16/04/2024 20:45:00,1.117
16/04/2024 21:00:00,1.113
16/04/2024 21:15:00,1.11
16/04/2024 21:30:00,1.108
16/04/2024 21:45:00,1.108
16/04/2024 22:00:00,1.103
16/04/2024 22:15:00,1.103
16/04/2024 22:30:00,1.1
16/04/2024 22:45:00,1.1
16/04/2024 23:00:00,1.099
16/04/2024 23:15:00,1.095
16/04/2024 23:30:00,1.094
16/04/2024 23:45:00,1.095
17/04/2024 00:00:00,1.091
17/04/2024 00:15:00,1.087
17/04/2024 00:30:00,1.089
17/04/2024 00:45:00,1.087
17/04/2024 01:00:00,1.086
17/04/2024 01:15:00,1.083
17/04/2024 01:30:00,1.082
17/04/2024 01:45:00,1.08
17/04/2024 02:00:00,1.079
17/04/2024 02:15:00,1.078
17/04/2024 02:30:00,1.076
17/04/2024 02:45:00,1.078
17/04/2024 03:00:00,1.075
17/04/2024 03:15:00,1.072
17/04/2024 03:30:00,1.072
17/04/2024 03:45:00,1.07
17/04/2024 04:00:00,1.068
17/04/2024 04:15:00,1.067
17/04/2024 04:30:00,1.066
17/04/2024 04:45:00,1.067
17/04/2024 05:00:00,1.064
17/04/2024 05:15:00,1.064
17/04/2024 05:30:00,1.063
17/04/2024 05:45:00,1.06
17/04/2024 06:00:00,1.06
17/04/2024 06:15:00,1.061
17/04/2024 06:30:00,1.059
17/04/2024 06:45:00,1.059
17/04/2024 07:00:00,1.061
17/04/2024 07:15:00,1.06
17/04/2024 07:30:00,1.057
17/04/2024 07:45:00,1.055
17/04/2024 08:00:00,1.056
17/04/2024 08:15:00,1.055
17/04/2024 08:30:00,1.057
17/04/2024 08:45:00,1.057
17/04/2024 09:00:00,1.056
17/04/2024 09:15:00,1.056
17/04/2024 09:30:00,1.059
17/04/2024 09:45:00,1.057
17/04/2024 10:00:00,1.059
17/04/2024 10:15:00,1.058
17/04/2024 10:30:00,1.062
17/04/2024 10:45:00,1.06
17/04/2024 11:00:00,1.061
17/04/2024 11:15:00,1.062
17/04/2024 11:30:00,1.064
17/04/2024 11:45:00,1.063
17/04/2024 12:00:00,1.063
17/04/2024 12:15:00,1.063
17/04/2024 12:30:00,1.062
17/04/2024 12:45:00,1.063
17/04/2024 13:00:00,1.065
17/04/2024 13:15:00,1.065
17/04/2024 13:30:00,1.063
17/04/2024 13:45:00,1.064
17/04/2024 14:00:00,1.062
17/04/2024 14:15:00,1.065
17/04/2024 14:30:00,1.066
17/04/2024 14:45:00,1.066
17/04/2024 15:00:00,1.064
17/04/2024 15:15:00,1.067
17/04/2024 15:30:00,1.067
17/04/2024 15:45:00,1.066
17/04/2024 16:00:00,1.066
17/04/2024 16:15:00,1.067
17/04/2024 16:30:00,1.067
17/04/2024 16:45:00,1.068
17/04/2024 17:00:00,1.066
17/04/2024 17:15:00,1.066
17/04/2024 17:30:00,1.067
17/04/2024 17:45:00,1.066
17/04/2024 18:00:00,1.068
17/04/2024 18:15:00,1.066
17/04/2024 18:30:00,1.068
17/04/2024 18:45:00,1.068
17/04/2024 19:00:00,1.068
17/04/2024 19:15:00,1.07
17/04/2024 19:30:00,1.067
17/04/2024 19:45:00,1.069
17/04/2024 20:00:00,1.069
17/04/2024 20:15:00,1.072
17/04/2024 20:30:00,1.07
17/04/2024 20:45:00,1.072
17/04/2024 21:00:00,1.071
17/04/2024 21:15:00,1.069
17/04/2024 21:30:00,1.071
17/04/2024 21:45:00,1.069
17/04/2024 22:00:00,1.072
17/04/2024 22:15:00,1.071
17/04/2024 22:30:00,1.069
17/04/2024 22:45:00,1.07
17/04/2024 23:00:00,1.069
17/04/2024 23:15:00,1.067
17/04/2024 23:30:00,1.068
17/04/2024 23:45:00,1.065
18/04/2024 00:00:00,1.063
18/04/2024 00:15:00,1.064
18/04/2024 00:30:00,1.063
18/04/2024 00:45:00,1.064
18/04/2024 01:00:00,1.064
18/04/2024 01:15:00,1.064
18/04/2024 01:30:00,1.061
18/04/2024 01:45:00,1.06
18/04/2024 02:00:00,1.06
18/04/2024 02:15:00,1.061
18/04/2024 02:30:00,1.059
18/04/2024 02:45:00,1.056
18/04/2024 03:00:00,1.058
18/04/2024 03:15:00,1.058
18/04/2024 03:30:00,1.057
18/04/2024 03:45:00,1.056
18/04/2024 04:00:00,1.054
18/04/2024 04:15:00,1.054
18/04/2024 04:30:00,1.055
18/04/2024 04:45:00,1.052
18/04/2024 05:00:00,1.051
18/04/2024 05:15:00,1.053
18/04/2024 05:30:00,1.051
18/04/2024 05:45:00,1.049
18/04/2024 06:00:00,1.049
18/04/2024 06:15:00,1.048
18/04/2024 06:30:00,1.048
18/04/2024 06:45:00,1.048
18/04/2024 07:00:00,1.046
18/04/2024 07:15:00,1.045
18/04/2024 07:30:00,1.045
18/04/2024 07:45:00,1.043
18/04/2024 08:00:00,1.041
18/04/2024 08:15:00,1.041
18/04/2024 08:30:00,1.04
18/04/2024 08:45:00,1.039
18/04/2024 09:00:00,1.04
18/04/2024 09:15:00,1.037
18/04/2024 09:30:00,1.04
18/04/2024 09:45:00,1.039
18/04/2024 10:00:00,1.037
18/04/2024 10:15:00,1.037
18/04/2024 10:30:00,1.036
18/04/2024 10:45:00,1.034
18/04/2024 11:00:00,1.034
18/04/2024 11:15:00,1.035
18/04/2024 11:30:00,1.036
18/04/2024 11:45:00,1.035
18/04/2024 12:00:00,1.034
18/04/2024 12:15:00,1.032
18/04/2024 12:30:00,1.034
18/04/2024 12:45:00,1.034
18/04/2024 13:00:00,1.033
18/04/2024 13:15:00,1.034
18/04/2024 13:30:00,1.033
18/04/2024 13:45:00,1.032
18/04/2024 14:00:00,1.033
18/04/2024 14:15:00,1.032
18/04/2024 14:30:00,1.032
18/04/2024 14:45:00,1.032
18/04/2024 15:00:00,1.034
18/04/2024 15:15:00,1.03
18/04/2024 15:30:00,1.033
18/04/2024 15:45:00,1.031
18/04/2024 16:00:00,1.031
18/04/2024 16:15:00,1.03
18/04/2024 16:30:00,1.03
18/04/2024 16:45:00,1.029
18/04/2024 17:00:00,1.029
18/04/2024 17:15:00,1.03
18/04/2024 17:30:00,1.028
18/04/2024 17:45:00,1.028
18/04/2024 18:00:00,1.028
18/04/2024 18:15:00,1.029
18/04/2024 18:30:00,1.029
18/04/2024 18:45:00,1.028
18/04/2024 19:00:00,1.027
18/04/2024 19:15:00,1.026
18/04/2024 19:30:00,1.027
18/04/2024 19:45:00,1.027
18/04/2024 20:00:00,1.024
18/04/2024 20:15:00,1.026
18/04/2024 20:30:00,1.023
18/04/2024 20:45:00,1.023
18/04/2024 21:00:00,1.023
18/04/2024 21:15:00,1.021
18/04/2024 21:30:00,1.022
18/04/2024 21:45:00,1.02
18/04/2024 22:00:00,1.021
18/04/2024 22:15:00,1.021
18/04/2024 22:30:00,1.02
18/04/2024 22:45:00,1.019
18/04/2024 23:00:00,1.019
18/04/2024 23:15:00,1.019
18/04/2024 23:30:00,1.019
18/04/2024 23:45:00,1.018
19/04/2024 00:00:00,1.019
19/04/2024 00:15:00,1.018
19/04/2024 00:30:00,1.018
19/04/2024 00:45:00,1.018
19/04/2024 01:00:00,1.018
19/04/2024 01:15:00,1.017
19/04/2024 01:30:00,1.015
19/04/2024 01:45:00,1.015
19/04/2024 02:00:00,1.015
19/04/2024 02:15:00,1.015
19/04/2024 02:30:00,1.014
19/04/2024 02:45:00,1.016
19/04/2024 03:00:00,1.014
19/04/2024 03:15:00,1.015
19/04/2024 03:30:00,1.016
19/04/2024 03:45:00,1.014
19/04/2024 04:00:00,1.015
19/04/2024 04:15:00,1.013
19/04/2024 04:30:00,1.014
19/04/2024 04:45:00,1.013
19/04/2024 05:00:00,1.014
19/04/2024 05:15:00,1.014
19/04/2024 05:30:00,1.013
19/04/2024 05:45:00,1.013
19/04/2024 06:00:00,1.013
19/04/2024 06:15:00,1.012
19/04/2024 06:30:00,1.013
19/04/2024 06:45:00,1.013
19/04/2024 07:00:00,1.013
19/04/2024 07:15:00,1.012
19/04/2024 07:30:00,1.013
19/04/2024 07:45:00,1.013
19/04/2024 08:00:00,1.011
19/04/2024 08:15:00,1.013
19/04/2024 08:30:00,1.013
19/04/2024 08:45:00,1.012
19/04/2024 09:00:00,1.013
19/04/2024 09:15:00,1.011
19/04/2024 09:30:00,1.013
19/04/2024 09:45:00,1.013
19/04/2024 10:00:00,1.012
19/04/2024 10:15:00,1.013
19/04/2024 10:30:00,1.014
19/04/2024 10:45:00,1.013
19/04/2024 11:00:00,1.013
19/04/2024 11:15:00,1.014
19/04/2024 11:30:00,1.012
19/04/2024 11:45:00,1.013
19/04/2024 12:00:00,1.015
19/04/2024 12:15:00,1.014
19/04/2024 12:30:00,1.014
19/04/2024 12:45:00,1.012
19/04/2024 13:00:00,1.012
19/04/2024 13:15:00,1.013
19/04/2024 13:30:00,1.01
19/04/2024 13:45:00,1.011
19/04/2024 14:00:00,1.009
19/04/2024 14:15:00,1.01
19/04/2024 14:30:00,1.01
19/04/2024 14:45:00,1.01
19/04/2024 15:00:00,1.007
19/04/2024 15:15:00,1.007
19/04/2024 15:30:00,1.007
19/04/2024 15:45:00,1.007
19/04/2024 16:00:00,1.006
19/04/2024 16:15:00,1.007
19/04/2024 16:30:00,1.005
19/04/2024 16:45:00,1.005
19/04/2024 17:00:00,1.005
19/04/2024 17:15:00,1.002
